User: anonymous   Login
Location: Unspecified
(0.0000°N, 0.0000°E)
Time: 13:47:12
(UTC+00:00)
Language:

Polar BEAR P87-1 - Orbit

View from above orbital plane
View from above orbital plane
View from above satellite
View from above satellite

Ground track
Ground track

The orbit data is extracted from the following two-line orbital elements,

1 17070U 86088A   17111.74909817 +.00000053 +00000-0 +43811-4 0  9990
2 17070 089.5368 329.8050 0036722 277.6893 126.4543 13.74727016526001
Epoch (UTC): 21 April 2017 17:58:42
Eccentricity: 0.0036722
inclination: 89.5368°
perigee height: 955 km
apogee height: 1009 km
right ascension of ascending node: 329.8050°
argument of perigee: 277.6893°
revolutions per day: 13.74727016
mean anomaly at epoch: 126.4543°
orbit number at epoch: 52600

The dashed part of the orbit path shows where the satellite is in the earth's shadow,  

DLR